Miscellaneous Local Product
Issued by NWS Hastings, NE

Home | Current Version | Previous Version | Text Only | Print | Product List | Glossary On
Versions: 1 2 3 4 5 6 7 8 9 10 11 12 13 14 15 16 17 18 19 20 21 22 23 24 25 26 27 28 29 30 31 32 33 34 35 36 37 38 39 40 41 42 43 44 45 46 47 48 49 50
840
AXUS43 KGID 270902
MISGRI

GID CWA HOURLY WEATHER ROUNDUP
NATIONAL WEATHER SERVICE HASTINGS NE
300 AM CST MON FEB 27 2017

NOTE: "FAIR" INDICATES FEW OR NO CLOUDS BELOW 12,000 FEET WITH NO
SIGNIFICANT WEATHER AND/OR OBSTRUCTIONS TO VISIBILITY.

...SOUTH CENTRAL NEBRASKA...

CITY           SKY/WX    TMP DP  RH WIND       PRES   REMARKS
GRAND ISLAND   CLEAR     26  17  68 S7        29.94S WCI  18
HASTINGS       CLEAR     29  14  53 S6        29.94S WCI  23
KEARNEY        CLEAR     21  16  79 CALM      29.92F
ORD            CLEAR     15  11  83 CALM      29.90F
YORK           CLEAR     27  23  86 S6        29.95F WCI  20
AURORA         CLEAR     26  15  65 S5        29.94F WCI  20
LEXINGTON      CLEAR     18  14  82 CALM      29.90F
HOLDREGE       CLEAR     24  11  57 SE5       29.90F WCI  18
HEBRON         CLEAR     24  18  78 CALM      29.96F

...NEBRASKA PANHANDLE...

CITY           SKY/WX    TMP DP  RH WIND       PRES   REMARKS
CHADRON        CLOUDY    11   5  77 CALM      29.74F
ALLIANCE       CLOUDY    10   5  80 S13       29.76F WCI  -5
SCOTTSBLUFF    CLOUDY    18   8  65 E12       29.76F WCI   5
SIDNEY         CLOUDY    19  10  68 SE10      29.77F WCI   7

...WESTERN AND NORTH CENTRAL NEBRASKA...

CITY           SKY/WX    TMP DP  RH WIND       PRES   REMARKS
VALENTINE      CLOUDY     9   3  77 W6        29.84F WCI  -1
AINSWORTH      CLEAR     19  12  74 SW8       29.85S WCI   9
ONEILL         CLOUDY    14  10  83 S5        29.89F WCI   7
BROKEN BOW     CLEAR     12   8  84 CALM      29.88F
IMPERIAL       CLEAR     22  11  62 S8        29.84F WCI  12
NORTH PLATTE   CLEAR     16  10  77 E6        29.87F WCI   7
MCCOOK         CLEAR     17   9  70 CALM      29.89S

...EASTERN NEBRASKA...

CITY           SKY/WX    TMP DP  RH WIND       PRES   REMARKS
NORFOLK        CLEAR     22  18  85 SW7       29.93S WCI  13
SO SIOUX CITY  CLEAR     18  14  84 E9        29.97R WCI   7
TEKAMAH        CLEAR     21  19  92 S6        29.98F WCI  13
COLUMBUS       CLEAR     21  16  79 CALM      29.96S
ALBION         CLEAR     19  14  81 CALM      29.93S
OMAHA EPPLEY   CLEAR     25  19  78 S5        29.99S WCI  19
OFFUTT AFB     CLEAR     23  19  84 CALM      29.98S
MILLARD        CLEAR     26  24  93 CALM      29.99S
LINCOLN        CLEAR     20  18  92 N5        29.98F WCI  13
NEBRASKA CITY  CLEAR     31  17  55 S3        29.99S
BEATRICE       CLEAR     22  18  85 CALM      29.98S
FALLS CITY     CLEAR     22  19  89 SE3       29.99F

...NORTHERN KANSAS...

CITY           SKY/WX    TMP DP  RH WIND       PRES   REMARKS
GOODLAND       CLEAR     26  15  63 S15       29.81F WCI  14
HILL CITY      CLEAR     19   8  62 CALM      29.90F
PHILLIPSBURG   CLEAR     16  10  79 CALM      29.93F
SMITH CENTER   CLEAR     19  12  73 E8        29.93F WCI   9
HAYS           CLEAR     23  10  57 CALM      29.92F
RUSSELL        CLEAR     25  16  68 SE10      29.91F WCI  15
CONCORDIA      CLEAR     26  15  63 S7        29.95F WCI  18
SALINA         CLEAR     29  21  72 CALM      29.97F
TOPEKA         FOG       28  28 100 CALM      30.02S VSB 1/4



USA.gov is the U.S. government's official web portal to all federal, state and local government web resources and services.